Theta_e
341 341 340 338 338 339 339 337 337 337 335 332 330 328 325 322 322 321 319 317 316 316 316 314 314 315 311 312 313 312 310 309 304 308 310 314 319 318 316 317 316 317 314
341 341 341 338 338 339 338 337 335 334 333 330 327 323 321 320 319 317 315 314 314 313 312 312 311 311 312 314 311 312 311 311 307 308 312 309 313 315 316 315 312 311 313
341 341 342 339 339 339 339 338 335 332 330 325 323 320 319 317 316 315 315 314 313 312 311 310 310 312 310 310 310 308 308 308 309 306 306 308 308 309 309 312 312 313 309
340 341 341 340 338 335 336 335 333 329 324 320 318 318 314 316 314 313 312 312 312 311 310 310 310 309 308 309 308 309 308 307 308 305 304 305 305 309 307 305 305 308 308
339 338 340 340 336 334 332 331 328 322 317 317 317 314 313 315 313 313 311 311 311 310 311 310 311 308 306 307 305 306 306 304 303 302 302 303 302 303 302 306 306 305 307
339 336 337 335 333 330 330 326 321 314 313 315 312 314 316 310 301 303 306 312 311 311 310 311 312 310 309 308 309 309 307 305 303 303 301 301 304 304 303 304 303 302 300
336 334 332 331 330 328 325 319 315 311 311 311 313 316 314 308 301 301 302 313 311 310 311 310 308 307 306 304 305 307 308 308 306 306 303 302 302 305 306 305 306 306 303
333 330 330 327 324 323 319 317 315 312 313 313 311 315 313 306 301 301 301 312 311 311 310 309 308 307 302 301 304 306 307 307 307 305 306 306 307 308 308 308 307 307 306
330 329 327 325 321 318 318 313 313 312 311 311 313 315 312 305 300 300 302 311 310 309 309 307 305 306 296 297 303 305 305 305 305 306 303 302 301 301 302 305 303 302 303
329 328 326 323 320 317 315 312 313 310 310 314 312 313 308 305 299 299 301 310 309 309 310 309 299 301 296 296 302 304 301 301 304 305 307 307 306 308 304 308 306 301 304
330 327 324 322 318 316 313 308 310 310 310 309 311 310 309 306 303 299 299 307 308 307 307 307 304 296 296 296 296 303 300 300 302 305 304 303 305 306 305 308 310 306 305
327 323 320 317 312 309 308 308 309 308 307 308 308 306 308 309 302 298 299 297 298 307 306 307 303 296 296 297 297 295 296 297 303 302 302 301 301 303 305 308 311 310 311
321 315 309 308 308 308 306 306 306 308 306 305 305 304 305 306 303 298 299 298 296 303 306 299 297 297 295 297 296 299 297 304 302 301 301 301 302 304 311 309 311 312 312
308 306 306 305 305 306 306 306 305 308 306 304 304 305 304 305 304 303 303 302 297 301 302 305 304 301 297 300 300 301 306 306 303 302 302 302 303 303 303 304 303 303 303
307 306 304 304 304 303 304 305 306 309 307 305 305 305 304 304 304 301 301 306 307 300 301 308 306 306 306 306 308 308 307 306 305 305 304 303 302 302 301 305 304 303 302
305 304 304 303 303 303 302 302 295 297 297 297 296 303 303 298 294 295 296 297 294 293 302 305 305 305 305 306 306 307 307 305 306 305 305 304 303 303 302 303 303 303 302
307 305 304 304 303 304 302 302 301 299 296 295 294 294 297 296 294 293 295 295 294 292 301 306 305 305 305 305 305 305 305 306 308 305 305 304 304 303 302 302 302 301 300
308 302 305 304 303 302 305 305 304 302 301 303 295 297 293 293 293 292 293 291 300 296 302 305 305 305 305 305 305 304 305 305 305 305 304 305 305 303 302 302 302 301 301
308 307 308 308 308 307 307 305 304 304 304 304 305 296 296 292 292 293 291 301 302 303 305 305 306 306 306 306 306 307 307 306 305 305 305 304 305 303 302 302 302 294 295
310 308 307 311 308 307 306 304 304 305 305 305 305 305 306 299 300 301 301 303 303 304 306 305 306 306 307 308 308 308 307 306 306 305 305 305 305 304 303 302 301 299 301
314 311 303 310 308 307 305 304 306 307 306 306 307 307 297 306 304 304 304 304 304 304 305 306 305 306 307 308 308 307 306 306 306 306 306 306 307 304 306 305 303 302 301
312 310 308 310 307 305 305 306 307 306 307 306 307 303 291 306 305 305 306 306 306 307 307 308 307 308 307 307 307 306 305 305 306 306 306 306 306 306 305 303 303 302 301
308 307 305 306 306 300 304 307 307 307 306 307 307 305 304 305 303 306 306 307 307 308 308 308 308 307 308 308 309 308 306 306 307 308 306 306 305 304 304 305 304 302 301
305 305 304 306 305 305 305 307 307 299 305 306 306 306 306 306 305 307 307 308 308 309 309 308 308 308 308 309 310 310 310 310 310 309 308 307 307 305 305 305 305 302 302
307 306 306 306 305 306 306 305 305 306 306 306 305 306 307 307 307 308 309 309 309 309 309 310 310 310 310 311 312 310 305 290 304 293 308 307 306 306 305 305 303 303 300
306 307 308 308 307 306 306 305 306 306 306 306 306 307 307 307 308 308 309 309 309 309 309 310 310 311 311 311 311 300 292 290 300 288 304 306 305 307 305 304 302 301 299
Wind_Speed
14 15 16 17 15 13 12 12 11 11 11 10 9 8 6 4 1 0 2 1 2 2 3 5 6 7 8 8 7 8 9 7 9 9 11 10 11 9 10 11 12 12 11
15 16 14 14 14 14 13 14 14 12 11 10 6 7 5 4 3 1 0 3 2 4 4 6 7 6 6 8 8 8 9 9 8 11 9 10 9 11 12 12 11 13 14
15 17 16 16 16 15 15 14 14 12 11 10 6 6 4 4 5 3 2 2 3 3 4 5 5 7 6 7 6 6 8 9 10 10 11 9 9 10 12 11 11 13 12
17 19 19 18 17 15 15 14 14 14 11 9 8 8 5 6 4 4 4 2 2 4 4 4 5 8 8 8 9 9 9 10 10 11 10 8 8 10 10 9 11 11 11
18 18 16 16 15 15 15 15 14 13 10 8 8 6 8 7 3 4 4 3 2 4 4 4 7 5 2 4 7 9 9 9 10 10 11 8 9 8 9 10 10 9 10
15 14 14 15 15 15 16 17 15 13 10 10 8 10 7 6 7 5 5 4 4 5 4 3 6 3 5 4 7 10 11 9 9 9 9 9 10 10 11 11 11 11 9
15 14 14 14 13 14 15 17 15 14 13 11 8 9 6 9 6 3 3 4 5 3 5 4 7 8 10 11 11 14 8 13 8 7 10 11 12 11 10 11 12 11 11
15 14 14 14 14 13 15 16 12 12 12 10 8 7 10 7 7 5 6 5 5 5 4 4 5 7 9 10 11 9 9 8 4 6 9 9 9 9 9 11 10 11 9
15 13 15 16 15 17 17 15 14 13 9 7 8 13 12 10 9 7 7 7 6 4 5 5 4 6 6 9 11 9 10 9 10 9 12 15 16 15 13 9 10 11 9
17 15 15 15 16 16 14 14 10 10 9 7 10 12 12 11 9 6 5 3 4 6 4 9 8 5 3 6 9 9 10 10 10 12 11 8 5 11 16 9 7 9 8
14 14 13 14 15 14 12 12 7 7 3 5 8 8 7 12 10 5 2 8 2 5 1 5 7 5 3 6 7 7 8 10 14 13 7 7 8 7 8 7 6 7 7
11 13 14 14 12 13 15 11 10 8 10 6 10 9 9 9 11 6 3 6 7 3 2 5 7 3 5 7 8 6 11 12 7 7 7 7 7 8 7 5 7 7 4
15 13 14 15 14 15 13 11 8 8 10 11 11 11 10 8 7 10 6 3 4 4 4 4 3 6 11 7 13 14 12 5 7 7 7 7 7 7 8 7 7 7 6
18 16 15 16 15 13 9 8 7 8 7 7 11 9 8 9 9 9 7 6 9 6 8 6 7 7 8 7 3 10 4 5 6 7 7 7 7 7 9 8 8 9 9
17 15 14 13 13 12 9 9 7 13 12 10 7 8 9 9 10 9 5 8 4 5 4 7 9 7 5 4 1 0 3 5 5 6 7 8 7 7 8 8 8 9 9
15 13 12 11 11 11 11 9 3 9 9 10 10 4 5 11 16 14 11 10 7 5 5 7 4 3 2 1 2 2 2 2 5 5 6 6 7 7 7 7 8 9 8
16 15 12 12 11 10 12 10 12 5 9 7 8 9 9 12 13 13 9 6 5 3 7 8 4 3 3 2 3 4 3 3 3 5 7 6 7 8 8 8 7 8 9
15 18 13 12 11 12 13 12 12 12 12 9 2 4 8 11 12 11 9 5 6 6 8 9 5 4 3 4 4 4 4 5 5 5 5 5 6 7 7 8 7 9 10
14 12 13 14 13 11 12 13 12 13 12 11 11 6 8 8 7 8 8 8 9 9 11 10 5 5 4 4 4 3 3 6 5 5 4 5 5 6 8 8 9 9 8
18 18 14 11 11 12 11 12 13 13 13 12 12 12 12 9 9 10 10 10 10 10 8 6 6 5 5 4 5 6 7 8 4 6 6 6 6 6 7 7 4 6 8
10 12 13 11 11 11 11 13 12 12 11 11 11 12 15 13 11 11 11 12 11 11 9 8 7 7 7 7 7 7 8 8 7 7 7 6 7 7 10 9 7 6 6
11 12 9 9 10 8 7 7 8 10 11 10 9 9 15 10 10 11 11 10 10 10 8 7 7 7 7 7 7 7 8 9 8 7 8 8 8 8 5 2 6 8 6
12 12 9 9 10 8 6 9 10 10 10 10 9 13 11 9 9 10 8 8 8 8 8 8 8 8 8 8 8 8 9 9 8 9 9 8 7 6 6 8 7 6 7
11 10 9 9 9 10 11 10 10 9 11 10 10 10 11 10 10 10 9 9 9 9 8 8 8 10 9 9 9 9 10 9 8 9 11 11 11 11 8 5 8 6 3
9 9 9 10 10 10 11 11 10 11 10 9 9 10 9 11 12 12 10 9 9 9 10 10 9 12 15 17 15 16 12 6 9 3 6 7 8 11 12 9 4 2 2
8 7 9 10 9 9 9 12 11 10 10 10 9 10 10 10 10 10 10 10 9 10 12 10 11 15 15 13 16 8 8 9 6 5 3 6 9 10 10 6 3 3 4
Wind_Direction
198 195 188 187 184 190 177 185 168 164 160 163 165 158 158 155 119 230 119 156 316 349 357 4 342 354 352 315 339 353 336 342 308 321 306 342 303 346 358 334 331 316 327
200 195 187 182 182 183 178 185 171 160 159 176 145 142 171 158 173 199 345 26 9 5 8 352 356 351 329 9 344 347 318 321 329 307 323 310 18 4 346 334 346 326 333
192 190 185 185 184 176 179 175 164 155 164 138 148 118 213 170 174 163 93 58 21 19 19 8 2 3 11 7 331 324 329 320 316 320 307 350 355 0 335 343 344 336 329
193 203 186 186 181 173 175 163 161 151 151 120 150 155 93 216 170 147 110 68 19 54 53 36 25 30 14 355 328 346 358 324 326 319 321 358 352 353 338 326 325 325 341
204 199 189 185 176 173 172 150 153 141 133 133 158 120 213 181 150 112 124 109 110 104 93 18 107 74 237 311 332 350 327 334 338 336 332 356 348 336 336 337 328 316 325
203 189 179 176 175 172 151 154 151 140 143 147 156 197 181 127 85 59 335 134 126 75 56 38 134 136 35 9 267 270 281 296 316 337 327 340 335 329 341 335 319 351 320
194 185 176 171 168 160 151 154 152 151 139 166 190 175 138 120 145 143 275 155 112 103 72 26 349 56 25 349 337 289 290 234 237 310 320 332 325 338 330 317 332 321 313
181 186 162 157 155 157 159 168 156 150 157 164 171 165 149 135 167 203 241 167 135 115 97 66 31 28 31 350 326 338 337 346 18 330 327 309 311 323 315 315 314 301 332
174 175 158 155 161 161 177 163 157 149 148 170 181 169 160 155 182 206 236 179 135 129 133 94 33 20 26 354 328 351 340 356 334 230 251 258 262 267 263 296 327 343 344
183 171 164 163 160 161 169 150 151 149 158 180 173 172 155 145 184 204 252 238 172 190 200 137 91 50 39 346 333 348 346 348 322 313 307 309 281 255 243 245 328 354 341
172 167 162 155 151 151 144 134 124 119 181 120 167 120 163 164 156 191 319 290 143 207 120 135 126 157 67 307 308 327 324 307 296 290 343 352 349 350 357 12 341 348 338
158 145 134 140 128 130 131 131 136 146 128 158 154 176 177 157 140 180 131 50 19 328 294 59 105 144 244 262 286 322 283 292 310 346 356 3 356 355 351 359 358 319 324
123 116 116 118 123 128 129 133 135 163 166 169 184 176 167 162 153 142 161 149 235 262 25 86 139 231 259 242 246 262 277 329 344 355 359 2 358 336 314 17 307 334 349
117 122 125 126 126 124 133 138 144 187 196 196 197 149 153 157 159 172 176 196 228 231 196 193 206 238 276 299 235 224 267 10 339 1 0 356 1 353 349 5 352 352 347
125 129 129 129 131 136 145 156 172 215 200 188 151 167 165 176 169 144 172 198 162 61 315 241 204 211 205 203 128 310 77 7 2 6 11 4 8 6 352 347 347 358 347
133 137 142 142 146 153 165 182 113 116 89 93 69 123 93 127 122 112 99 88 74 36 255 256 184 204 230 311 285 304 59 58 1 354 14 6 4 3 342 349 4 356 347
145 146 146 151 158 177 180 163 159 123 78 72 87 76 99 132 121 122 128 144 166 178 242 254 215 214 239 254 276 298 328 58 274 345 354 353 354 353 345 351 13 353 351
157 154 158 161 171 172 183 176 165 171 175 178 207 155 117 138 138 144 144 161 210 213 257 268 224 219 238 254 265 286 325 321 304 358 340 334 332 331 338 342 2 0 345
151 160 170 175 180 182 172 173 172 176 177 181 176 185 155 129 123 138 164 231 238 229 201 225 221 232 236 249 262 302 288 275 303 291 292 285 294 312 322 334 339 360 337
169 182 191 171 166 177 178 178 188 180 182 185 180 180 179 158 191 198 207 221 239 253 254 234 233 227 243 249 256 257 260 266 261 241 263 265 276 279 280 292 311 324 320
173 169 170 178 165 173 188 197 193 183 189 193 189 184 158 185 199 203 208 209 220 230 237 238 236 224 216 230 245 251 257 265 262 269 282 286 313 305 317 303 298 315 303
166 165 169 172 161 176 193 204 199 194 195 190 197 136 152 196 210 208 207 203 204 223 238 235 233 243 252 258 267 272 280 283 287 295 281 282 291 286 248 209 273 295 304
152 156 166 158 153 178 191 203 208 194 193 195 196 152 183 204 222 238 211 211 218 228 228 229 237 239 241 245 250 251 259 267 264 258 273 298 275 271 265 266 279 283 295
146 147 159 141 168 175 212 217 199 197 198 200 198 197 181 197 216 230 228 219 220 225 228 233 236 238 242 240 246 252 249 255 277 294 300 297 312 319 321 298 294 277 300
132 144 151 180 186 215 191 204 205 195 207 214 199 212 220 198 201 211 219 222 232 234 228 226 229 233 231 231 237 251 264 259 268 303 284 285 282 287 283 285 292 181 281
138 165 195 196 202 202 199 199 211 204 204 209 223 214 216 220 221 223 224 227 231 232 235 239 240 242 250 253 253 250 161 174 196 176 253 260 266 274 279 278 203 206 263